[[{"header":{"parameterUnit":"m.s-1","parameterCategory":1,"la1":30.2991,"la2":30.254,"lo1":-89.0895,"lo2":-89.0444,"dy":0.0017,"dx":0.0017,"nx":28,"ny":28,"refTime":"2023-03-30T15:00:00:Z","depth":0,"parameterNumber":2,"parameterNumberName":"U-component_of_WINDS"},"data":[0,0,0,0,0,0,0,0,0,0,0,0,0,0,0,0,0,0,0,0,0,0,0,0,0,0,0,0,0,0,0,0,0,0,0,0,0,0,0,0,0,0,0,0,0,0,0,0,0,0,0,0,0,0,0,0,0,0,4.0706,4.0706,0,4.075,4.0751,4.0751,4.0705,4.0703,4.0701,4.0699,4.0746,4.0749,4.0752,0,0,0,0,0,0,0,0,0,0,0,0,0,4.0583,4.0585,4.0706,4.0706,4.0707,4.075,4.0751,4.0751,4.0705,4.0703,4.07,4.0698,4.0745,4.0749,4.0752,0,0,0,0,0,0,0,0,0,0,0,0,0,4.0633,4.0586,4.0706,4.0689,4.0688,4.075,4.0751,4.0751,4.0705,4.0703,4.07,4.0697,4.0744,4.0749,4.0753,4.0834,0,0,4.0766,4.0768,0,0,0,0,0,0,0,0,4.063,4.0637,4.0691,4.069,4.0689,4.0719,4.0725,4.0779,4.0706,4.0699,4.0699,4.0696,4.074,4.0744,4.0758,4.0836,4.0838,4.0767,4.0769,4.0771,4.0773,0,0,0,0,0,0,0,4.0627,4.0635,4.0723,4.0692,4.0691,4.068,4.0684,4.0735,4.0734,4.0699,4.0696,4.0702,4.0739,4.0754,4.0759,4.0839,4.0767,4.0771,4.0773,4.0775,4.0987,4.099,0,0,0,0,0,0,4.0625,4.0633,4.0722,4.0725,4.0652,4.0684,4.0689,4.0712,4.0733,4.0734,4.0704,4.0699,4.0748,4.0754,4.0761,4.0858,4.0771,4.0775,4.0778,4.0984,4.0987,4.0991,0,0,0,0,0,0,4.0622,4.0633,4.072,4.0678,4.0688,4.0689,4.0716,4.0714,4.073,4.0737,4.0737,4.072,4.0746,4.0755,4.0816,4.0859,4.0777,4.0781,4.098,4.0985,4.0989,4.1052,0,0,0,0,0,0,4.0619,4.0633,4.0663,4.0679,4.069,4.0774,4.0718,4.0717,4.0738,4.0732,4.0752,4.0753,4.0745,4.081,4.0821,4.0863,4.0785,4.0976,4.0982,4.0988,4.1046,4.1058,4.1068,0,0,0,0,0,4.0615,4.0679,4.0665,4.0676,4.0728,4.0777,4.0784,4.0773,4.0741,4.0772,4.0776,4.0752,4.0852,4.0817,4.0828,4.0873,4.0974,4.0981,4.0987,4.1041,4.1056,4.1068,0,0,0,0,0,0,4.0668,4.0681,4.0665,4.0736,4.0756,4.0769,4.0807,4.0789,4.0818,4.0812,4.0798,4.0803,4.0868,4.0877,4.0837,4.0953,4.0908,4.0917,4.0945,4.0959,4.097,4.0966,4.0789,0,0,0,0,0,4.0689,4.0727,4.0735,4.0798,4.0808,4.0806,4.0827,4.0817,4.0837,4.0845,4.0854,4.0875,4.0911,4.0936,4.0969,4.1047,4.1051,4.1083,4.1095,4.1104,4.1112,4.1154,4.1169,4.1013,4.1013,4.1012,0,0,4.0731,4.0742,4.0767,4.0809,4.0823,4.0863,4.0814,4.0858,4.0888,4.0852,4.0911,4.0919,4.0941,4.1011,4.1043,4.102,4.1156,4.1112,4.1119,4.1123,4.1162,4.1177,4.119,4.1017,4.1016,4.1016,0,0,4.0827,4.084,4.0893,4.0908,4.093,4.0929,4.0941,4.0958,4.0961,4.102,4.0994,4.103,4.1092,4.1109,4.1126,4.1231,4.121,4.1243,4.13,4.1342,4.1354,4.1365,4.1402,4.1416,4.1251,4.1251,4.1251,0,4.0877,4.0936,4.0923,4.0969,4.0989,4.0958,4.1012,4.1028,4.106,4.1075,4.1049,4.1127,4.114,4.1214,4.124,4.1254,4.1269,4.124,4.1353,4.1364,4.1374,4.1409,4.1423,4.1255,4.1254,4.1254,4.1254,0,4.0996,4.1037,4.1078,4.1109,4.1133,4.1184,4.1179,4.1205,4.1193,4.1195,4.1255,4.127,4.1306,4.1323,4.1312,4.1396,4.1381,4.1355,4.1309,4.1393,4.1426,4.1439,4.126,4.1259,4.1258,4.1257,0,0,4.1127,4.1151,4.1166,4.118,4.1203,4.1235,4.1284,4.1319,4.1342,4.1366,4.1407,4.1461,4.1436,4.1456,4.1447,4.1483,4.1565,4.1452,4.1452,4.1473,4.1659,4.1679,4.1695,4.1551,4.1554,4.1556,4.1657,0,4.1225,4.131,4.13,4.1381,4.1419,4.1391,4.1434,4.1453,4.1456,4.149,4.1493,4.1532,4.1496,4.1508,4.1543,4.1548,4.1603,4.1541,4.159,4.1592,4.1585,4.1712,4.1733,4.1827,4.167,4.1672,4.1674,0,4.135,4.1377,4.1462,4.1479,4.1495,4.1534,4.1565,4.1598,4.1619,4.1619,4.1641,4.1625,4.1675,4.1629,4.1698,4.1657,4.1676,4.1682,4.1686,4.169,4.1638,4.1719,4.1857,4.1871,4.1694,4.1692,4.1691,0,4.1437,4.1496,4.1554,4.1567,4.1588,4.1616,4.1627,4.1645,4.1667,4.1695,4.1709,4.1743,4.1761,4.1788,4.1783,4.175,4.1854,4.1807,4.1855,4.1855,4.1878,4.1877,4.2021,4.1891,4.1891,4.1891,4.1891,0,4.1547,4.16,4.1594,4.163,4.1689,4.1678,4.1737,4.1743,4.176,4.1797,4.1775,4.1811,4.1802,4.1837,4.1834,4.1892,4.19,4.1902,4.19,4.1903,4.1903,4.1916,4.1909,4.1895,4.1894,4.1893,4.1892,0,4.1654,4.1652,4.1714,4.1729,4.1734,4.1777,4.179,4.1825,4.1826,4.1874,4.1884,4.1887,4.1927,4.1925,4.1971,4.1968,4.204,4.2031,4.2033,4.2031,4.2079,4.2074,4.2236,4.2257,4.2114,4.2116,4.2117,0,4.1724,4.1764,4.1784,4.1807,4.1819,4.1857,4.1879,4.187,4.1895,4.1922,4.1953,4.1992,4.2022,4.2089,4.2095,4.213,4.2121,4.2176,4.2126,4.2129,4.2122,4.2119,4.2123,4.2185,4.2187,4.2188,4.2189,0,4.1849,4.1846,4.1879,4.1912,4.1939,4.1964,4.1987,4.2008,4.2001,4.203,4.2071,4.2094,4.2141,4.218,4.2214,4.2225,4.2207,4.2205,4.2218,4.2221,4.2221,4.2222,4.2059,4.2201,4.22,4.2199,4.2198,4.2198,4.1939,4.1974,4.1993,4.2031,4.2047,4.207,4.2103,4.2108,4.2142,4.2179,4.2172,4.2219,4.2239,4.2283,4.2297,4.2334,4.2314,4.2333,4.2338,4.2343,4.2348,4.2216,4.234,4.234,4.2339,4.2339,4.2339,0,4.2063,4.2074,4.2108,4.2141,4.2171,4.2151,4.2176,4.2202,4.2243,4.2264,4.2294,4.2342,4.2379,4.2389,4.2425,4.2453,4.2445,4.2462,4.246,4.2463,4.2363,4.2348,4.2468,4.2468,4.2468,4.2468,4.2468,4.2468,4.213,4.2188,4.2187,4.2253,4.2264,4.2309,4.2325,4.2346,4.2362,4.2416,4.2447,4.2453,4.247,4.2507,4.2541,4.2543,4.2557,4.2578,4.2576,4.2483,4.247,4.2458,4.2443,4.2581,4.2581,4.2673,4.2674,4.2674]},{"header":{"parameterUnit":"m.s-1","parameterCategory":1,"la1":30.2991,"la2":30.254,"lo1":-89.0895,"lo2":-89.0444,"dy":0.0017,"dx":0.0017,"nx":28,"ny":28,"refTime":"2023-03-30T15:00:00:Z","depth":0,"parameterNumber":3,"parameterNumberName":"V-component_of_WINDS"},"data":[0,0,0,0,0,0,0,0,0,0,0,0,0,0,0,0,0,0,0,0,0,0,0,0,0,0,0,0,0,0,0,0,0,0,0,0,0,0,0,0,0,0,0,0,0,0,0,0,0,0,0,0,0,0,0,0,0,0,2.7372,2.7373,0,2.7481,2.7482,2.7483,2.7509,2.7508,2.7507,2.7506,2.7613,2.7616,2.762,0,0,0,0,0,0,0,0,0,0,0,0,0,2.7182,2.7186,2.7372,2.7373,2.7375,2.748,2.7482,2.7483,2.7509,2.7508,2.7507,2.7506,2.7612,2.7616,2.762,0,0,0,0,0,0,0,0,0,0,0,0,0,2.7275,2.7187,2.7372,2.74,2.7404,2.748,2.7482,2.7484,2.7509,2.7508,2.7507,2.7506,2.761,2.7615,2.7621,2.7675,0,0,2.7637,2.7639,0,0,0,0,0,0,0,0,2.727,2.7282,2.7395,2.7399,2.7403,2.748,2.7454,2.7548,2.7509,2.7469,2.7506,2.7505,2.7569,2.7578,2.76,2.768,2.7684,2.7637,2.764,2.7643,2.7644,0,0,0,0,0,0,0,2.7263,2.7277,2.7415,2.7396,2.7401,2.7406,2.7418,2.7472,2.7524,2.7472,2.7474,2.7487,2.7571,2.7595,2.7603,2.7686,2.7637,2.7642,2.7645,2.7647,2.7814,2.7815,0,0,0,0,0,0,2.7253,2.7272,2.7411,2.7418,2.7332,2.741,2.7424,2.7456,2.7523,2.7532,2.7488,2.7488,2.7587,2.7597,2.7607,2.7675,2.7643,2.7647,2.765,2.7813,2.7814,2.7816,0,0,0,0,0,0,2.7248,2.7265,2.7407,2.7346,2.7364,2.7415,2.7451,2.7459,2.7483,2.7535,2.7544,2.7503,2.7586,2.7599,2.7658,2.7679,2.765,2.7655,2.7811,2.7813,2.7815,2.781,0,0,0,0,0,0,2.7243,2.7263,2.7285,2.7346,2.7367,2.7458,2.7452,2.7462,2.7493,2.7494,2.7552,2.756,2.7586,2.765,2.7663,2.7685,2.7659,2.781,2.7812,2.7814,2.7809,2.7812,2.7814,0,0,0,0,0,2.7236,2.7279,2.7286,2.7303,2.7397,2.7459,2.7471,2.7501,2.7494,2.7516,2.7549,2.7559,2.7674,2.7656,2.7671,2.7695,2.7808,2.7811,2.7814,2.7808,2.7811,2.7814,0,0,0,0,0,0,2.7218,2.7287,2.7297,2.7361,2.7404,2.7463,2.7492,2.7504,2.7549,2.7548,2.7582,2.7595,2.7651,2.7679,2.7657,2.775,2.7741,2.7747,2.7731,2.7735,2.7737,2.773,2.7663,0,0,0,0,0,2.7222,2.7268,2.7325,2.7376,2.7398,2.7441,2.7469,2.7489,2.7535,2.7553,2.759,2.7632,2.7678,2.7708,2.7753,2.7812,2.7825,2.7836,2.7839,2.7841,2.7846,2.7879,2.7885,2.7825,2.7825,2.7825,0,0,2.7229,2.7273,2.73,2.7374,2.741,2.7456,2.7456,2.7505,2.7539,2.7559,2.7618,2.7646,2.7696,2.7755,2.7783,2.7779,2.7865,2.7845,2.7846,2.785,2.7883,2.7888,2.7893,2.7827,2.7827,2.7826,0,0,2.7267,2.7305,2.7352,2.7388,2.7442,2.7471,2.7482,2.754,2.756,2.7619,2.7635,2.7675,2.7753,2.7788,2.7816,2.7866,2.7876,2.7879,2.7894,2.7926,2.7931,2.7935,2.7953,2.7959,2.7884,2.7884,2.7884,0,2.7269,2.7341,2.7373,2.7422,2.7453,2.7475,2.7522,2.7555,2.7621,2.7641,2.7637,2.7736,2.777,2.7838,2.785,2.7872,2.7885,2.7873,2.7928,2.7932,2.7937,2.7954,2.7961,2.7884,2.7884,2.7884,2.7884,0,2.7341,2.739,2.7421,2.7486,2.7521,2.7568,2.7606,2.7637,2.7653,2.7681,2.774,2.7783,2.7837,2.7854,2.787,2.7924,2.792,2.7921,2.7912,2.7942,2.7959,2.7966,2.7884,2.7884,2.7884,2.7884,0,0,2.7371,2.7453,2.7464,2.7494,2.7555,2.7593,2.764,2.7695,2.7721,2.7765,2.7805,2.787,2.7871,2.7903,2.7922,2.795,2.7987,2.7948,2.795,2.7954,2.8048,2.8048,2.8055,2.7994,2.7995,2.7996,2.8044,0,2.7416,2.7504,2.7535,2.7606,2.7651,2.7673,2.7713,2.7755,2.7782,2.7823,2.7852,2.7899,2.7897,2.7916,2.7945,2.7977,2.8006,2.7973,2.803,2.8032,2.8018,2.8064,2.8063,2.8107,2.8051,2.8052,2.8053,0,2.7482,2.7529,2.7605,2.7661,2.7681,2.7718,2.777,2.7809,2.7856,2.7874,2.7909,2.7926,2.7975,2.7962,2.8029,2.8006,2.8031,2.8049,2.8052,2.8059,2.8045,2.8072,2.8122,2.8128,2.8064,2.8063,2.8062,0,2.7496,2.7578,2.7635,2.7659,2.7726,2.7751,2.778,2.7825,2.7856,2.79,2.792,2.7969,2.7996,2.8032,2.8062,2.8051,2.8126,2.8116,2.8141,2.814,2.8157,2.8155,2.8211,2.8172,2.8171,2.8171,2.8171,0,2.7544,2.759,2.7642,2.7677,2.7729,2.7762,2.7812,2.7841,2.7882,2.7921,2.7941,2.7978,2.8015,2.8055,2.8078,2.813,2.8141,2.8156,2.8162,2.8155,2.8153,2.8172,2.817,2.8173,2.8173,2.8172,2.8172,0,2.757,2.7607,2.767,2.7728,2.7743,2.7779,2.7828,2.7861,2.7889,2.7939,2.7953,2.7996,2.8045,2.8078,2.814,2.8155,2.8211,2.8216,2.8196,2.8199,2.8222,2.822,2.8293,2.8304,2.8256,2.8256,2.8257,0,2.7598,2.7635,2.7697,2.7726,2.7755,2.7801,2.7833,2.7866,2.7898,2.7954,2.798,2.8031,2.8073,2.815,2.8185,2.8233,2.8239,2.8261,2.8246,2.8238,2.824,2.8237,2.8241,2.8264,2.8264,2.8264,2.8265,0,2.7645,2.7662,2.7708,2.776,2.7797,2.784,2.7882,2.7903,2.7944,2.7978,2.803,2.8063,2.8126,2.8176,2.8226,2.8254,2.8266,2.8269,2.8277,2.8271,2.8258,2.8266,2.8203,2.8267,2.8267,2.8267,2.8267,2.8267,2.7674,2.7707,2.7756,2.7806,2.7842,2.788,2.7915,2.7948,2.7992,2.8048,2.8064,2.8117,2.8161,2.8231,2.8259,2.83,2.8298,2.8309,2.8313,2.8315,2.8315,2.8251,2.8309,2.8309,2.8309,2.8309,2.8309,0,2.7722,2.7755,2.78,2.786,2.7899,2.7908,2.7955,2.7986,2.8033,2.8075,2.8116,2.8174,2.8222,2.8262,2.8311,2.8336,2.8342,2.8347,2.8346,2.8352,2.8314,2.8303,2.8341,2.8341,2.8341,2.8341,2.8341,2.8341,2.7752,2.7808,2.783,2.7904,2.7936,2.799,2.8016,2.8051,2.8084,2.8149,2.819,2.8216,2.8256,2.8308,2.8352,2.8362,2.8379,2.8383,2.8394,2.8359,2.8355,2.8351,2.8341,2.8387,2.8387,2.8429,2.8429,2.843]}]]